Tracking 29892 objects as of 21-Nov-2024
HD Live streaming from Space Station
objects crossing your sky now

STARLINK-2497

Track STARLINK-2497 now!
10-day predictions
STARLINK-2497 is classified as:


NORAD ID: 48455
Int'l Code: 2021-040AD
Perigee: 553.4 km
Apogee: 555.2 km
Inclination: 53.1 °
Period: 95.6 minutes
Semi major axis: 6925 km
RCS: Unknown
Launch date: May 9, 2021
Source: United States (US)
Launch site: AIR FORCE EASTERN TEST RANGE (AFETR)
Your satellite tracking list
Your tracking list is empty




NASA's NSSDC Master Catalog

Two Line Element Set (TLE):
1 48455U 21040AD  24325.91661463  .00004225  00000-0  30227-3 0  9995
2 48455  53.0523 148.4646 0001358  87.6958 272.4186 15.06413643195210
Source of the keplerian elements: AFSPC